Wind_Speed
22 22 24 25 24 24 26 26 27 26 29 31 31 28 26 24 18 13 11 9 8 8 7 7 6 7 8 6 17 7 13 23 22 27 22 18 28 24 13 17 13 17 12 23 28 8 3
22 23 24 25 27 23 24 21 26 27 28 32 32 29 27 21 13 10 9 7 8 7 7 5 4 6 10 10 9 9 10 21 26 32 25 21 26 23 14 12 15 12 18 15 18 7 1
22 22 24 25 24 24 24 25 25 25 30 32 34 31 29 20 7 8 6 8 6 4 5 6 4 5 10 17 2 11 13 18 25 30 27 23 19 22 5 8 20 6 6 12 6 8 2
24 24 23 25 25 24 24 23 23 26 29 32 35 32 25 15 5 5 6 7 5 7 9 9 4 4 8 9 12 7 17 8 5 27 25 23 16 13 1 2 5 8 4 9 9 12 6
25 24 26 26 24 25 24 25 23 26 28 31 35 29 22 10 4 4 4 1 4 9 9 4 3 5 6 2 16 12 13 8 8 24 23 20 12 5 10 6 4 7 8 11 10 16 6
25 25 27 28 26 25 25 25 23 25 25 27 32 26 20 9 7 6 3 3 4 7 7 2 4 3 8 4 9 14 19 9 10 28 16 18 8 4 5 8 10 16 16 13 13 13 13
24 26 28 28 26 26 25 24 22 23 25 23 27 27 20 11 7 5 5 7 5 1 4 1 5 6 10 10 11 17 15 8 14 20 6 11 5 15 20 17 6 9 11 13 13 9 12
22 26 28 29 27 26 25 24 22 20 23 21 20 24 21 11 5 4 7 3 4 2 3 3 5 5 9 4 6 10 10 6 9 12 10 6 12 10 12 12 15 9 6 14 3 8 5
20 24 27 29 27 27 28 25 24 23 20 17 19 16 15 14 10 4 4 2 2 4 2 5 4 5 1 4 7 6 8 1 13 16 13 9 6 11 16 13 13 12 8 7 4 6 1
20 23 26 28 28 27 28 29 28 23 22 20 15 14 11 6 7 6 4 3 2 4 1 5 5 3 2 4 7 9 9 4 2 14 12 5 5 10 9 15 14 11 7 7 6 5 3
18 21 25 26 26 28 29 30 30 28 24 21 17 10 8 2 3 2 4 2 2 6 2 4 6 8 1 2 12 9 9 7 3 8 4 2 7 8 8 12 9 6 9 7 4 2 4
18 20 24 24 27 28 29 31 31 30 28 23 17 9 5 3 4 5 3 1 4 1 7 3 1 4 3 4 6 6 6 9 4 6 9 4 6 2 3 6 3 8 9 8 3 0 2
17 19 21 22 26 27 30 33 33 32 32 25 14 8 6 3 1 9 6 1 2 5 3 3 1 5 7 2 5 1 4 4 2 6 3 4 3 2 2 5 2 7 9 3 1 1 4
15 18 21 21 24 27 30 31 35 34 31 24 13 5 8 3 7 3 3 3 5 3 5 3 2 6 3 1 4 5 8 3 6 7 3 3 3 2 4 1 5 5 7 3 5 4 4
14 17 21 21 22 27 29 32 34 34 31 23 12 5 8 13 7 5 2 3 2 2 3 2 5 3 4 3 3 6 7 5 5 3 3 4 3 2 1 4 5 3 1 3 3 3 3
13 16 20 23 24 27 30 32 34 34 30 23 10 3 1 11 2 4 1 4 2 4 4 4 1 1 4 6 5 6 2 4 7 7 8 7 5 1 4 3 5 3 4 3 1 2 4
13 16 18 21 26 28 30 33 34 32 29 23 5 5 1 10 3 2 2 2 6 1 3 4 3 2 3 3 2 2 5 2 3 4 5 3 4 6 5 4 5 1 1 4 2 2 2
12 16 17 21 25 27 31 34 33 28 26 20 5 2 5 6 3 5 2 4 1 1 1 1 2 5 1 3 1 2 6 5 3 1 3 3 4 3 2 6 7 6 6 3 3 4 1
13 17 18 21 23 27 29 29 31 24 22 20 7 4 4 2 2 2 1 3 2 2 1 1 2 2 2 2 1 3 5 0 2 3 2 4 3 3 2 2 4 4 7 8 0 3 3
15 18 19 21 24 26 25 30 30 23 18 10 4 3 2 2 3 4 4 4 3 1 2 2 2 2 4 3 2 3 5 2 1 4 2 2 2 2 2 2 3 4 7 8 5 3 3
13 16 17 20 22 20 22 27 29 23 14 5 3 3 3 3 3 6 2 3 4 3 3 2 3 6 4 3 4 4 7 4 4 4 1 3 3 3 2 4 4 2 5 8 7 6 4
11 13 16 18 18 18 21 25 27 25 11 8 5 5 7 8 4 5 4 3 2 2 2 4 4 4 3 2 2 3 5 5 4 5 4 2 2 2 2 4 2 5 7 8 9 10 10
9 11 13 16 17 19 18 21 24 28 19 8 8 4 3 10 1 3 4 5 4 2 2 5 8 2 4 6 8 6 5 4 3 6 6 5 4 2 0 3 3 6 14 16 11 9 15
6 9 11 14 17 18 18 18 21 20 20 11 11 7 4 3 3 4 6 5 6 3 5 4 4 3 2 2 4 3 2 3 1 1 1 3 5 3 1 1 1 5 2 2 18 9 10
5 6 10 16 16 16 18 17 14 18 18 12 13 7 4 3 11 8 11 6 10 7 4 4 4 3 4 1 3 3 2 2 4 2 5 5 4 2 2 3 8 6 5 3 5 8 14
3 5 12 18 16 16 17 16 11 13 15 12 13 12 2 4 5 8 8 7 3 5 4 4 1 3 1 2 1 1 3 5 4 5 3 3 4 3 2 3 3 2 3 1 2 3 5
2 7 11 16 14 15 12 14 14 11 10 16 9 11 4 4 3 9 4 5 7 7 3 2 3 2 2 1 2 3 2 2 3 4 4 3 3 6 5 3 6 2 7 4 1 2 10
3 6 12 13 13 10 10 12 12 16 10 12 9 9 8 4 15 5 5 5 8 7 3 8 3 3 2 2 2 3 3 4 3 5 6 7 5 4 4 3 6 12 5 2 5 9 10
3 6 11 9 11 11 11 13 12 14 13 14 11 11 13 7 11 20 22 25 19 13 6 5 3 5 7 3 2 2 2 2 4 3 6 4 6 4 6 5 4 9 0 11 10 9 7
Wind_Direction
1 352 349 352 351 348 349 344 340 339 337 333 331 328 322 316 306 290 288 294 298 303 297 297 282 223 224 228 256 329 194 201 201 186 195 189 184 188 193 197 216 222 246 217 247 114 222
359 355 353 353 348 349 345 348 346 342 342 340 336 334 329 314 296 283 284 289 285 291 303 296 261 220 201 239 254 251 209 191 196 187 188 193 191 188 197 189 212 220 235 283 220 141 243
359 352 356 354 349 352 354 348 344 348 348 345 342 340 335 327 285 281 270 292 263 300 287 303 247 215 226 224 256 202 219 178 195 180 186 193 190 201 194 234 197 109 167 257 262 141 180
0 356 355 355 352 351 349 346 349 355 352 350 351 346 343 347 304 278 272 287 255 288 273 286 240 222 266 259 205 268 212 176 191 182 186 189 189 219 230 122 192 195 235 200 210 167 165
358 358 358 357 354 354 352 349 354 358 353 357 357 0 2 9 35 315 282 282 308 300 263 266 210 211 263 288 225 221 238 219 183 178 176 188 199 209 194 167 174 184 204 222 186 205 155
358 357 357 357 357 356 355 353 354 357 356 0 359 8 15 11 10 66 80 14 21 43 90 112 260 230 268 239 228 199 219 210 184 175 172 170 166 180 191 180 190 190 210 202 217 186 203
357 356 358 359 357 358 355 354 351 358 355 359 5 8 20 9 47 80 38 5 347 134 210 33 330 261 288 318 168 171 189 185 186 176 153 170 163 197 193 202 204 193 197 246 203 160 184
354 355 358 359 359 357 355 355 350 352 353 0 9 7 23 16 29 70 43 54 51 350 303 314 324 292 281 284 165 165 152 169 174 145 145 157 209 205 198 215 224 240 215 218 258 139 182
351 355 359 1 0 357 356 354 351 350 345 354 359 11 10 31 32 76 26 81 85 31 331 15 350 313 195 146 171 127 162 82 163 162 179 160 186 211 197 221 223 222 235 181 184 130 359
352 352 358 2 3 360 358 357 355 354 350 343 339 351 3 18 20 68 295 154 113 24 284 7 350 18 170 161 119 119 108 125 60 168 174 183 153 201 223 222 221 213 204 209 113 122 237
349 351 356 0 2 3 1 359 2 357 353 346 343 326 341 359 232 259 218 153 354 342 103 345 318 327 27 347 140 57 95 98 15 142 93 132 159 184 211 218 212 202 103 94 100 227 347
347 351 356 360 7 7 1 360 359 2 354 353 344 337 313 342 305 259 232 352 326 249 55 14 68 302 298 25 60 99 83 80 70 77 49 30 10 147 222 306 289 128 101 101 95 317 264
348 347 355 355 359 2 3 358 357 359 356 351 350 344 324 292 330 283 260 301 259 39 190 346 128 113 81 35 98 118 56 114 182 127 112 18 357 9 201 117 116 182 150 121 158 187 227
342 345 350 354 352 353 353 357 352 354 355 351 348 346 352 328 265 252 151 236 51 324 91 171 145 120 85 25 85 141 153 123 142 106 122 154 154 347 350 140 190 203 190 154 188 188 177
342 344 344 349 351 348 349 351 351 348 351 351 344 309 0 353 338 147 243 55 93 250 1 145 190 133 123 140 191 216 142 123 143 159 137 163 66 100 317 319 340 186 198 17 319 209 95
339 345 342 343 348 348 347 347 348 345 351 352 346 355 277 350 1 99 294 93 175 214 333 275 229 164 129 134 188 204 117 86 130 182 224 157 114 124 129 254 11 6 345 161 220 211 223
335 342 338 341 343 344 346 344 346 346 348 350 17 313 340 341 332 227 92 186 147 171 324 323 7 135 136 113 211 111 67 111 109 160 261 193 115 154 147 226 153 113 191 222 311 159 209
337 334 341 341 341 338 343 343 345 348 343 2 28 299 331 350 252 255 132 187 191 78 181 61 332 348 121 139 142 99 104 64 46 197 110 357 102 127 122 101 152 194 216 254 161 223 223
333 340 344 343 342 338 342 348 352 352 352 351 344 288 310 325 320 50 143 153 296 206 75 324 116 336 290 218 113 82 89 161 42 19 82 174 141 103 142 174 181 216 186 224 81 35 215
338 344 346 347 343 341 354 356 358 357 349 352 0 346 251 218 298 305 196 187 193 148 274 304 118 204 187 162 328 135 114 125 55 70 31 346 123 99 139 118 123 188 203 208 139 138 194
341 344 350 347 353 360 358 357 1 4 4 23 37 56 354 316 70 324 339 12 249 218 230 267 209 265 228 154 175 174 115 143 179 162 190 337 136 102 287 107 110 213 218 217 194 212 177
346 346 356 355 357 355 357 360 4 10 23 32 28 7 339 286 292 270 149 187 309 100 277 183 266 195 241 307 351 151 168 183 190 161 188 112 146 108 268 167 249 242 241 236 218 216 247
341 1 4 3 3 359 357 356 4 11 21 55 25 12 326 287 286 289 8 29 66 354 155 290 327 242 224 51 23 355 41 347 68 155 205 153 121 109 236 56 292 269 225 215 210 190 210
346 1 8 359 356 3 359 358 360 9 20 39 21 30 349 320 322 3 11 352 323 28 330 118 325 314 27 99 114 108 90 52 90 342 267 194 130 110 224 351 271 240 80 211 212 208 203
338 351 350 358 348 351 355 353 3 9 15 34 23 50 16 298 341 2 3 328 314 274 242 300 82 69 114 261 155 156 174 180 206 178 249 223 135 204 201 222 290 280 178 181 170 235 217
322 326 350 350 350 346 351 355 340 358 8 13 21 27 37 315 28 340 327 314 311 340 168 167 307 156 209 264 262 221 213 222 163 164 284 245 189 172 156 249 260 89 125 170 108 271 277
273 341 338 337 341 346 356 11 13 351 351 3 352 3 35 295 315 353 351 333 328 335 289 97 149 160 191 229 239 212 239 352 220 197 165 194 218 210 225 269 285 157 138 159 169 200 56
298 342 331 330 352 359 349 346 349 355 344 350 336 346 11 289 288 282 277 294 322 303 311 345 316 212 172 250 201 201 229 214 258 192 167 179 187 193 204 232 259 123 114 229 137 116 116
278 324 326 338 346 337 334 341 340 344 335 323 319 325 332 310 270 292 279 264 252 245 293 292 306 323 360 267 252 217 234 269 173 261 155 196 199 184 186 212 159 187 289 130 136 135 156
Height
1526 1522 1518 1515 1510 1506 1501 1495 1491 1486 1482 1476 1470 1465 1459 1455 1454 1453 1453 1453 1453 1453 1452 1452 1451 1453 1455 1458 1452 1451 1452 1455 1463 1468 1474 1478 1482 1488 1489 1491 1494 1495 1493 1495 1494 1499 1501
1526 1522 1518 1514 1509 1503 1498 1493 1489 1485 1479 1474 1467 1460 1455 1450 1450 1450 1451 1451 1452 1452 1451 1451 1451 1452 1454 1456 1449 1452 1451 1456 1459 1464 1473 1476 1479 1485 1488 1487 1492 1491 1491 1493 1493 1497 1500
1525 1521 1517 1512 1507 1502 1497 1493 1487 1483 1478 1472 1465 1458 1452 1447 1447 1448 1449 1450 1450 1451 1451 1450 1450 1451 1454 1451 1449 1448 1451 1453 1458 1464 1471 1476 1480 1484 1485 1487 1489 1490 1495 1497 1493 1496 1500
1524 1519 1514 1509 1504 1499 1495 1491 1487 1483 1477 1471 1464 1457 1450 1446 1446 1447 1449 1449 1450 1450 1450 1450 1450 1451 1448 1445 1447 1450 1452 1453 1453 1463 1471 1475 1479 1482 1485 1487 1486 1490 1495 1501 1494 1497 1500
1523 1518 1512 1507 1502 1497 1494 1491 1486 1482 1477 1471 1464 1456 1451 1448 1448 1448 1448 1449 1450 1448 1448 1449 1451 1452 1448 1445 1446 1451 1452 1455 1457 1461 1468 1475 1479 1482 1487 1488 1493 1492 1499 1496 1494 1492 1495
1522 1518 1512 1506 1500 1497 1494 1489 1485 1482 1477 1472 1465 1458 1454 1451 1450 1450 1450 1450 1449 1449 1448 1450 1452 1454 1447 1446 1446 1451 1452 1454 1458 1460 1469 1474 1479 1481 1483 1487 1495 1488 1492 1490 1492 1489 1492
1522 1517 1510 1506 1501 1496 1493 1488 1483 1480 1476 1471 1467 1460 1456 1454 1453 1452 1452 1452 1454 1453 1451 1452 1451 1448 1448 1445 1446 1448 1452 1455 1457 1461 1463 1471 1476 1473 1471 1474 1477 1479 1487 1488 1484 1482 1490
1521 1516 1511 1507 1502 1496 1491 1487 1482 1479 1474 1470 1467 1464 1459 1456 1455 1454 1454 1454 1454 1456 1452 1450 1449 1448 1447 1448 1448 1448 1450 1456 1456 1458 1463 1473 1471 1473 1476 1478 1477 1478 1482 1487 1484 1484 1490
1520 1516 1512 1507 1503 1496 1491 1486 1482 1478 1474 1470 1467 1465 1461 1459 1457 1458 1456 1455 1454 1454 1453 1451 1449 1448 1449 1450 1451 1453 1456 1456 1456 1461 1464 1471 1472 1471 1474 1477 1477 1477 1483 1483 1487 1488 1490
1520 1516 1511 1507 1502 1495 1489 1484 1480 1475 1472 1468 1466 1465 1462 1459 1460 1458 1457 1455 1455 1455 1453 1455 1449 1449 1449 1445 1452 1456 1457 1460 1461 1463 1465 1469 1471 1473 1474 1475 1474 1478 1475 1479 1485 1495 1503
1520 1516 1511 1506 1501 1496 1490 1483 1478 1473 1469 1465 1463 1462 1461 1458 1458 1460 1457 1456 1455 1456 1443 1462 1454 1448 1446 1442 1452 1459 1460 1463 1465 1461 1469 1475 1473 1476 1477 1474 1471 1477 1476 1483 1489 1495 1498
1520 1516 1511 1506 1502 1497 1491 1484 1478 1473 1468 1463 1459 1459 1459 1459 1457 1458 1456 1456 1458 1458 1449 1460 1457 1456 1450 1448 1453 1460 1460 1464 1469 1470 1474 1480 1479 1480 1480 1479 1475 1476 1485 1490 1494 1499 1511
1519 1516 1510 1507 1503 1497 1492 1485 1478 1473 1468 1463 1458 1458 1457 1458 1458 1455 1456 1457 1455 1452 1463 1462 1455 1453 1455 1454 1457 1459 1463 1466 1468 1473 1478 1485 1485 1484 1484 1481 1483 1480 1487 1506 1517 1519 1509
1516 1514 1511 1506 1501 1497 1492 1486 1478 1473 1465 1462 1458 1456 1457 1456 1455 1454 1455 1457 1450 1457 1454 1456 1453 1453 1455 1455 1458 1461 1466 1464 1466 1468 1476 1475 1486 1486 1486 1485 1486 1481 1479 1493 1496 1505 1499
1514 1512 1510 1505 1500 1495 1491 1486 1479 1471 1466 1460 1456 1455 1455 1454 1454 1454 1456 1454 1461 1461 1451 1450 1450 1449 1453 1454 1455 1455 1457 1460 1466 1466 1471 1475 1481 1488 1488 1486 1485 1484 1490 1484 1490 1479 1500
1514 1510 1508 1504 1500 1495 1490 1484 1478 1471 1465 1458 1456 1454 1455 1455 1454 1455 1454 1457 1459 1456 1451 1447 1447 1447 1448 1450 1452 1449 1449 1454 1460 1462 1463 1467 1479 1488 1488 1488 1487 1486 1487 1491 1496 1498 1487
1512 1509 1506 1502 1498 1492 1488 1482 1476 1470 1464 1461 1455 1457 1454 1454 1454 1455 1457 1460 1453 1453 1453 1451 1446 1444 1445 1447 1446 1445 1450 1457 1455 1459 1457 1456 1466 1486 1489 1486 1484 1490 1489 1484 1482 1488 1492
1510 1508 1505 1501 1496 1492 1487 1482 1475 1467 1461 1458 1458 1458 1456 1453 1455 1449 1453 1455 1452 1450 1451 1450 1449 1447 1444 1447 1446 1448 1449 1452 1455 1455 1457 1459 1466 1478 1475 1476 1478 1483 1482 1477 1485 1485 1487
1508 1505 1503 1499 1496 1491 1484 1478 1474 1467 1462 1457 1456 1457 1456 1454 1451 1451 1453 1452 1452 1450 1450 1449 1449 1450 1450 1448 1452 1450 1453 1458 1457 1456 1457 1459 1471 1486 1480 1480 1477 1477 1474 1479 1475 1482 1484
1507 1505 1501 1498 1493 1489 1485 1481 1473 1468 1462 1458 1457 1460 1456 1453 1453 1450 1450 1449 1451 1453 1451 1451 1450 1450 1450 1450 1448 1452 1455 1458 1459 1458 1459 1458 1462 1470 1475 1471 1469 1477 1471 1472 1480 1494 1479
1505 1503 1500 1497 1492 1488 1482 1480 1473 1467 1463 1461 1459 1460 1463 1456 1452 1452 1451 1450 1449 1450 1452 1451 1450 1449 1446 1449 1450 1451 1452 1458 1459 1459 1459 1460 1475 1476 1466 1466 1471 1472 1470 1470 1479 1476 1485
1504 1502 1500 1497 1493 1489 1485 1481 1476 1469 1463 1464 1465 1466 1464 1459 1455 1453 1452 1448 1449 1450 1452 1449 1450 1447 1447 1447 1447 1449 1451 1454 1455 1458 1459 1461 1475 1473 1475 1466 1469 1473 1470 1468 1469 1470 1472
1503 1502 1498 1496 1492 1490 1486 1483 1480 1475 1469 1466 1467 1468 1467 1460 1452 1453 1453 1449 1450 1452 1452 1451 1449 1447 1448 1450 1450 1451 1449 1450 1451 1455 1459 1461 1470 1477 1475 1468 1470 1474 1460 1460 1460 1460 1464
1501 1500 1498 1496 1494 1490 1486 1484 1483 1478 1474 1474 1471 1470 1469 1460 1456 1454 1456 1455 1453 1452 1453 1451 1451 1449 1454 1452 1453 1453 1452 1453 1453 1454 1455 1459 1465 1476 1482 1475 1487 1449 1444 1445 1449 1451 1455
1500 1500 1498 1496 1493 1490 1487 1484 1482 1481 1479 1474 1474 1471 1472 1467 1463 1458 1459 1459 1456 1453 1453 1452 1453 1454 1453 1453 1453 1456 1457 1457 1455 1456 1457 1456 1462 1468 1473 1478 1454 1440 1445 1446 1447 1448 1445
1498 1498 1498 1496 1493 1491 1488 1486 1484 1481 1479 1476 1475 1473 1473 1474 1467 1465 1463 1461 1459 1453 1451 1452 1453 1453 1454 1454 1453 1455 1457 1453 1456 1457 1457 1457 1459 1468 1467 1468 1462 1442 1441 1442 1443 1450 1437
1497 1497 1497 1495 1492 1490 1489 1487 1483 1479 1480 1478 1475 1474 1473 1474 1468 1467 1464 1464 1462 1459 1455 1452 1453 1454 1454 1454 1456 1455 1456 1448 1452 1452 1459 1462 1462 1468 1465 1463 1455 1440 1441 1443 1450 1451 1441
1495 1495 1495 1494 1491 1488 1489 1487 1484 1482 1479 1478 1476 1473 1473 1472 1466 1465 1465 1465 1464 1462 1459 1458 1455 1453 1454 1456 1453 1452 1454 1450 1448 1445 1451 1456 1459 1458 1460 1462 1466 1439 1443 1446 1444 1444 1445
1494 1493 1493 1492 1491 1488 1488 1486 1483 1480 1478 1476 1475 1472 1471 1470 1465 1462 1459 1460 1462 1463 1464 1460 1458 1456 1455 1452 1449 1446 1448 1444 1444 1450 1441 1453 1448 1450 1450 1450 1440 1440 1440 1441 1442 1444 1445